Weather History for Henderson, NV

Change the Weather History Date:

Wednesday, June 19, 2013

  Actual Average (KLAS) Record (KLAS)
Temperature  
Mean Temperature 84 °F 88 °F  
Max Temperature 96 °F 100 °F 114 °F (1940)
Min Temperature 72 °F 76 °F 56 °F (1939)
Degree Days  
Heating Degree Days 0 0  
Month to date heating degree days 0  
Since 1 June heating degree days 0  
Since 1 July heating degree days 1950  
Cooling Degree Days 19 23  
Month to date cooling degree days 381  
Year to date cooling degree days 931  
Since 1 June cooling degree days 381  
Growing Degree Days 34 (Base 50)    
Moisture  
Dew Point 21 °F    
Average Humidity 12    
Maximum Humidity 23    
Minimum Humidity 4    
Precipitation  
Precipitation 0.00 in 0.00 in 0.75 in (1967)
Month to date precipitation 0.04  
Year to date precipitation 2.05  
Snow  
Snow 0.00 in 0.00 in 0.00 in ()
Month to date snowfall 0.0  
Since 1 June snowfall 0.0  
Since 1 July snowfall 0.3  
Snow Depth -    
Sea Level Pressure  
Sea Level Pressure 29.66 in    
Wind  
Wind Speed 14 mph (SSW)    
Max Wind Speed 23 mph    
Max Gust Speed 29 mph    
Visibility 10 miles    
Events      
T = Trace of Precipitation, MM = Missing Value Source: NWS Daily Summary

Daily Weather History Graph

Daily Weather History Graph

Search for Another Location

Airport:

Trip Planner

Search our weather history database for the weather conditions in past years. The results will help you decide how hot, cold, wet, or windy it might be!

Date:

Astronomy

Jun. 19, 2013 Rise Set
Actual Time 5:23 AM PDT 8:00 PM PDT
Civil Twilight 4:53 AM PDT 8:30 PM PDT
Nautical Twilight 4:16 AM PDT 9:08 PM PDT
Astronomical Twilight 3:34 AM PDT 9:49 PM PDT
Moon 4:02 PM PDT (6/19) 2:05 AM PDT (6/19)
Length of Visible Light 15h 36m
Length of Day
14h 36m
Waxing Gibbous, 81% of the Moon is Illuminated
Jun 19
Waxing Gibbous
Jun 23
Full
Jun 29
Last Quarter
Jul 8
New
Jul 15
First Quarter

Hourly Weather History & Observations

Time (PDT) Temp. Dew Point Humidity Pressure Visibility Wind Dir Wind Speed Gust Speed Precip Events Conditions
12:56 AM 81.0 °F 32.9 °F 18% 29.64 in 10.0 mi SSE 13.8 mph - N/A   Clear
1:56 AM 79.0 °F 34.9 °F 20% 29.61 in 10.0 mi South 20.7 mph - N/A   Clear
2:56 AM 77.0 °F 34.9 °F 22% 29.60 in 10.0 mi SSW 20.7 mph 28.8 mph N/A   Clear
3:56 AM 75.9 °F 32.9 °F 21% 29.60 in 10.0 mi South 23.0 mph - N/A   Clear
4:56 AM 73.9 °F 32.9 °F 22% 29.61 in 10.0 mi SSW 18.4 mph - N/A   Clear
5:56 AM 72.9 °F 32.9 °F 23% 29.63 in 10.0 mi South 16.1 mph - N/A   Clear
6:56 AM 74.8 °F 32.0 °F 21% 29.66 in 10.0 mi SSW 16.1 mph - N/A   Clear
7:56 AM 77.0 °F 32.0 °F 19% 29.68 in 10.0 mi SW 20.7 mph - N/A   Clear
8:56 AM 81.0 °F 30.0 °F 16% 29.70 in 10.0 mi SW 15.0 mph - N/A   Clear
9:56 AM 82.9 °F 28.0 °F 14% 29.71 in 10.0 mi WNW 9.2 mph - N/A   Clear
10:56 AM 86.9 °F 28.0 °F 12% 29.72 in 10.0 mi Calm Calm - N/A   Clear
11:56 AM 86.9 °F 26.1 °F 11% 29.72 in 10.0 mi Calm Calm - N/A   Clear
12:56 PM 90.9 °F 24.1 °F 9% 29.70 in 10.0 mi Variable 6.9 mph - N/A   Clear
1:56 PM 92.8 °F 15.1 °F 6% 29.68 in 10.0 mi SSW 10.4 mph - N/A   Clear
2:56 PM 93.9 °F 14.0 °F 5% 29.67 in 10.0 mi Variable 3.5 mph - N/A   Clear
3:56 PM 95.0 °F 9.1 °F 4% 29.65 in 10.0 mi WSW 6.9 mph 16.1 mph N/A   Clear
4:56 PM 96.8 °F 8.6 °F 4% 29.72 in 10.0 mi South 10.4 mph 16.1 mph N/A   Clear
5:56 PM 95.0 °F 8.1 °F 4% 29.62 in 10.0 mi WSW 16.1 mph 19.6 mph N/A   Clear
6:56 PM 92.8 °F 11.1 °F 5% 29.63 in 10.0 mi WSW 12.7 mph - N/A   Clear
7:56 PM 90.0 °F 13.1 °F 6% 29.63 in 10.0 mi SSW 16.1 mph - N/A   Clear
8:56 PM 86.0 °F 14.0 °F 7% 29.64 in 10.0 mi SW 13.8 mph - N/A   Clear
9:56 PM 83.8 °F 3.0 °F 5% 29.66 in 10.0 mi SSW 12.7 mph - N/A   Clear
10:56 PM 81.9 °F 4.1 °F 5% 29.66 in 10.0 mi SSE 10.4 mph - N/A   Clear
11:56 PM 81.0 °F 5.0 °F 5% 29.65 in 10.0 mi SSW 19.6 mph - N/A   Clear